BG4WDV-11 Weather Reports


Display with metric or nautical units.
time (UTC)temp
F
wind
direction
speed
MPH
gust
MPH
rain 1hr
in
rain 24hr
in
rain mn
in
humidity
%
barometer
mb
20260504100532 77 0 0.0 2.0 0.00 0.00 0.00 45 1012.2
20260504100432 77 0 0.0 2.0 0.00 0.00 0.00 46 1012.2
20260504100331 77 225 0.0 2.0 0.00 0.00 0.00 46 1012.2
20260504100232 77 45 0.0 2.0 0.00 0.00 0.00 46 1012.3
20260504100132 77 45 0.0 2.0 0.00 0.00 0.00 46 1012.3
20260504090132 81 0 0.0 3.0 0.00 0.00 0.00 43 1012.2
20260504081931 82 90 0.0 4.0 0.00 0.00 0.00 41 1012.2
20260504081831 82 45 1.0 4.0 0.00 0.00 0.00 41 1012.2
20260504081731 82 90 1.0 4.0 0.00 0.00 0.00 41 1012.1
20260504081631 82 0 1.0 3.0 0.00 0.00 0.00 42 1012.3
20260504081531 82 45 1.0 3.0 0.00 0.00 0.00 41 1012.2
20260504081431 82 45 1.0 3.0 0.00 0.00 0.00 41 1012.1
20260504081331 82 0 1.0 3.0 0.00 0.00 0.00 42 1012.2
20260504081231 82 45 1.0 3.0 0.00 0.00 0.00 42 1012.2
20260504081131 82 45 1.0 3.0 0.00 0.00 0.00 42 1012.3
20260504081031 82 45 0.0 3.0 0.00 0.00 0.00 42 1012.2
20260504080931 81 90 0.0 3.0 0.00 0.00 0.00 42 1012.4
20260504080831 81 45 0.0 3.0 0.00 0.00 0.00 43 1012.3
20260504080731 81 90 0.0 3.0 0.00 0.00 0.00 43 1012.3
20260504080631 81 0 1.0 3.0 0.00 0.00 0.00 43 1012.1
20260504080531 81 315 1.0 4.0 0.00 0.00 0.00 43 1012.1
20260504080431 80 0 0.0 4.0 0.00 0.00 0.00 43 1012.2
20260504080331 80 0 0.0 4.0 0.00 0.00 0.00 43 1012.4
20260504080231 80 90 1.0 4.0 0.00 0.00 0.00 43 1012.2
20260504080131 80 90 1.0 4.0 0.00 0.00 0.00 42 1012.3
20260504070331 83 225 1.0 4.0 0.00 0.00 0.00 42 1012.6
20260504070230 83 0 1.0 4.0 0.00 0.00 0.00 42 1012.5
20260504070131 83 45 2.0 4.0 0.00 0.00 0.00 42 1012.6
20260504060231 83 45 0.0 5.0 0.00 0.00 0.00 43 1013.5
20260504060130 83 45 0.0 5.0 0.00 0.00 0.00 43 1013.4
20260504050730 81 0 1.0 5.0 0.00 0.00 0.00 45 1014.1
20260504050630 81 90 1.0 5.0 0.00 0.00 0.00 46 1014.2
20260504050530 81 45 2.0 5.0 0.00 0.00 0.00 47 1014.2
20260504050430 81 45 3.0 5.0 0.00 0.00 0.00 47 1014.1
20260504050330 81 90 2.0 5.0 0.00 0.00 0.00 46 1014.3
20260504050230 81 90 2.0 5.0 0.00 0.00 0.00 46 1014.1
20260504050130 81 90 1.0 5.0 0.00 0.00 0.00 46 1014.3
20260504045930 81 315 2.0 5.0 0.00 0.00 0.00 46 1014.1
20260504045830 81 315 2.0 5.0 0.00 0.00 0.00 46 1014.2
20260504045730 81 0 2.0 5.0 0.00 0.00 0.00 46 1014.3
20260504045630 81 90 2.0 6.0 0.00 0.00 0.00 46 1014.1
20260504045530 81 45 2.0 6.0 0.00 0.00 0.00 47 1014.2
20260504045430 81 45 2.0 6.0 0.00 0.00 0.00 46 1014.2
20260504045330 81 0 2.0 6.0 0.00 0.00 0.00 46 1014.2
20260504045230 81 0 2.0 6.0 0.00 0.00 0.00 47 1014.2
20260504045130 81 90 3.0 6.0 0.00 0.00 0.00 47 1014.2
20260504045030 81 45 3.0 6.0 0.00 0.00 0.00 47 1014.1
20260504044930 81 45 2.0 6.0 0.00 0.00 0.00 47 1014.2
20260504044830 81 90 3.0 6.0 0.00 0.00 0.00 47 1014.3
20260504044730 81 45 2.0 6.0 0.00 0.00 0.00 47 1014.3
20260504044630 81 45 1.0 5.0 0.00 0.00 0.00 47 1014.2
20260504044530 81 90 2.0 5.0 0.00 0.00 0.00 47 1014.2
20260504044430 81 45 1.0 5.0 0.00 0.00 0.00 48 1014.2
20260504044330 80 45 1.0 5.0 0.00 0.00 0.00 48 1014.3
20260504044230 80 0 2.0 5.0 0.00 0.00 0.00 48 1014.3
20260504044130 80 45 2.0 5.0 0.00 0.00 0.00 49 1014.3
20260504044030 80 45 1.0 5.0 0.00 0.00 0.00 47 1014.2
20260504043930 80 45 1.0 5.0 0.00 0.00 0.00 48 1014.3
20260504043830 80 90 2.0 5.0 0.00 0.00 0.00 48 1014.4
20260504043730 80 45 1.0 5.0 0.00 0.00 0.00 48 1014.2
20260504043630 80 90 0.0 5.0 0.00 0.00 0.00 48 1014.3
20260504043530 80 45 1.0 5.0 0.00 0.00 0.00 48 1014.4
20260504043430 80 90 2.0 5.0 0.00 0.00 0.00 48 1014.3
20260504043330 79 45 1.0 5.0 0.00 0.00 0.00 48 1014.4
20260504043230 79 90 1.0 5.0 0.00 0.00 0.00 48 1014.3
20260504043130 79 225 1.0 5.0 0.00 0.00 0.00 47 1014.3
20260504043030 80 45 0.0 6.0 0.00 0.00 0.00 47 1014.4
20260504042930 80 90 1.0 6.0 0.00 0.00 0.00 48 1014.3
20260504042830 80 45 2.0 6.0 0.00 0.00 0.00 48 1014.3
20260504042730 80 90 2.0 6.0 0.00 0.00 0.00 48 1014.2
20260504042630 79 45 3.0 6.0 0.00 0.00 0.00 48 1014.2
20260504042530 79 45 3.0 6.0 0.00 0.00 0.00 48 1014.4
20260504042430 79 45 3.0 6.0 0.00 0.00 0.00 48 1014.3
20260504042330 79 45 3.0 6.0 0.00 0.00 0.00 48 1014.4
20260504042230 79 45 2.0 6.0 0.00 0.00 0.00 48 1014.4
20260504042130 79 45 2.0 6.0 0.00 0.00 0.00 48 1014.4
20260504042030 79 45 1.0 6.0 0.00 0.00 0.00 48 1014.4
20260504041930 79 45 1.0 6.0 0.00 0.00 0.00 48 1014.4
20260504041830 79 45 2.0 6.0 0.00 0.00 0.00 48 1014.4
20260504041730 79 45 2.0 6.0 0.00 0.00 0.00 48 1014.3
20260504041630 79 45 2.0 6.0 0.00 0.00 0.00 48 1014.4
20260504041530 79 90 2.0 6.0 0.00 0.00 0.00 47 1014.4
20260504041430 79 0 1.0 6.0 0.00 0.00 0.00 47 1014.5
20260504041330 79 90 1.0 6.0 0.00 0.00 0.00 47 1014.4
20260504041230 79 225 2.0 6.0 0.00 0.00 0.00 47 1014.3
20260504041130 79 45 3.0 6.0 0.00 0.00 0.00 47 1014.4
20260504041030 80 0 2.0 5.0 0.00 0.00 0.00 46 1014.4
20260504040930 80 0 2.0 5.0 0.00 0.00 0.00 47 1014.5
20260504040830 80 45 2.0 5.0 0.00 0.00 0.00 47 1014.5
20260504040730 80 45 2.0 5.0 0.00 0.00 0.00 47 1014.5
20260504040630 80 45 1.0 5.0 0.00 0.00 0.00 47 1014.6
20260504040530 80 0 0.0 5.0 0.00 0.00 0.00 47 1014.5
20260504040430 80 90 0.0 4.0 0.00 0.00 0.00 47 1014.6
20260504040330 80 90 0.0 4.0 0.00 0.00 0.00 47 1014.6
20260504040230 80 1 4.0 0.0 0.00 0.00 0.00 47 1014.6
20260504040030 79 90 2.0 4.0 0.00 0.00 0.00 47 1014.7
20260504035930 79 45 1.0 4.0 0.00 0.00 0.00 47 1014.5
20260504035830 79 90 0.0 4.0 0.00 0.00 0.00 47 1014.6
20260504035730 79 45 2.0 4.0 0.00 0.00 0.00 47 1014.8
20260504035630 79 90 2.0 4.0 0.00 0.00 0.00 47 1014.7
20260504035530 80 90 2.0 4.0 0.00 0.00 0.00 47 1014.6
20260504035430 80 45 2.0 4.0 0.00 0.00 0.00 46 1014.8
20260504035330 80 0 1.0 3.0 0.00 0.00 0.00 46 1014.6
20260504035230 80 45 0.0 4.0 0.00 0.00 0.00 47 1014.7
20260504035130 80 0 0.0 4.0 0.00 0.00 0.00 47 1014.7
20260504035030 79 90 0.0 4.0 0.00 0.00 0.00 47 1014.8
20260504034930 79 45 0.0 4.0 0.00 0.00 0.00 46 1014.7
20260504034830 80 90 0.0 4.0 0.00 0.00 0.00 46 1014.7
20260504034730 80 315 0.0 4.0 0.00 0.00 0.00 46 1014.8
20260504034630 80 0 0.0 4.0 0.00 0.00 0.00 44 1014.7
20260504034530 81 90 0.0 4.0 0.00 0.00 0.00 45 1014.7
20260504034430 81 45 0.0 4.0 0.00 0.00 0.00 46 1014.7
20260504034330 81 90 1.0 4.0 0.00 0.00 0.00 46 1014.8
20260504034229 81 45 1.0 4.0 0.00 0.00 0.00 47 1014.9
20260504034130 81 90 2.0 4.0 0.00 0.00 0.00 47 1014.8
20260504034030 81 45 2.0 4.0 0.00 0.00 0.00 47 1014.9
20260504033930 81 45 2.0 4.0 0.00 0.00 0.00 46 1014.9
20260504033830 81 45 1.0 4.0 0.00 0.00 0.00 47 1015.0
20260504033730 80 45 0.0 4.0 0.00 0.00 0.00 47 1014.9
20260504033630 80 45 0.0 4.0 0.00 0.00 0.00 48 1015.0
20260504033530 80 45 1.0 4.0 0.00 0.00 0.00 48 1014.9
20260504033430 79 90 0.0 5.0 0.00 0.00 0.00 48 1014.9
20260504033330 79 45 0.0 5.0 0.00 0.00 0.00 49 1015.0
20260504033230 79 45 0.0 5.0 0.00 0.00 0.00 49 1015.0
20260504033130 79 45 0.0 5.0 0.00 0.00 0.00 48 1015.0
20260504033030 79 45 1.0 5.0 0.00 0.00 0.00 49 1014.9
20260504032930 79 45 1.0 5.0 0.00 0.00 0.00 49 1015.0
20260504032830 78 45 1.0 5.0 0.00 0.00 0.00 50 1015.1
20260504032730 78 45 0.0 5.0 0.00 0.00 0.00 50 1015.0
20260504032630 78 0 0.0 5.0 0.00 0.00 0.00 50 1014.9
20260504032530 78 45 0.0 5.0 0.00 0.00 0.00 50 1014.9
20260504032430 78 0 1.0 4.0 0.00 0.00 0.00 51 1015.1
20260504032330 78 0 1.0 4.0 0.00 0.00 0.00 50 1015.0
20260504032230 78 45 1.0 4.0 0.00 0.00 0.00 50 1015.0
20260504032130 78 0 0.0 5.0 0.00 0.00 0.00 51 1015.2
20260504032030 78 45 0.0 5.0 0.00 0.00 0.00 50 1015.1
20260504031930 78 45 0.0 5.0 0.00 0.00 0.00 50 1015.1
20260504031830 78 0 1.0 5.0 0.00 0.00 0.00 50 1015.1
20260504031730 78 45 2.0 5.0 0.00 0.00 0.00 50 1015.2
20260504031630 78 0 2.0 5.0 0.00 0.00 0.00 51 1015.1
20260504031530 78 45 1.0 5.0 0.00 0.00 0.00 51 1015.2
20260504031430 78 0 0.0 5.0 0.00 0.00 0.00 52 1015.3
20260504031330 78 45 0.0 5.0 0.00 0.00 0.00 51 1015.3
20260504031230 78 45 1.0 5.0 0.00 0.00 0.00 50 1015.2
20260504031130 78 0 1.0 4.0 0.00 0.00 0.00 50 1015.3
20260504031030 78 0 0.0 3.0 0.00 0.00 0.00 50 1015.1
20260504030930 78 90 0.0 3.0 0.00 0.00 0.00 50 1015.2
20260504030830 78 45 0.0 3.0 0.00 0.00 0.00 50 1015.2
20260504030730 78 45 0.0 3.0 0.00 0.00 0.00 50 1015.2
20260504030630 78 225 0.0 3.0 0.00 0.00 0.00 49 1015.2
20260504030530 79 45 0.0 3.0 0.00 0.00 0.00 49 1015.2
20260504030430 79 0 1.0 3.0 0.00 0.00 0.00 49 1015.2
20260504030329 79 90 0.0 3.0 0.00 0.00 0.00 50 1015.3
20260504030230 79 90 0.0 3.0 0.00 0.00 0.00 49 1015.3
20260504030130 79 45 1.0 4.0 0.00 0.00 0.00 49 1015.3
20260504030030 79 45 1.0 4.0 0.00 0.00 0.00 49 1015.2
20260504025930 79 90 0.0 4.0 0.00 0.00 0.00 49 1015.3
20260504025830 79 45 0.0 4.0 0.00 0.00 0.00 49 1015.3
20260504025730 79 45 0.0 4.0 0.00 0.00 0.00 49 1015.2
20260504025630 79 90 0.0 4.0 0.00 0.00 0.00 49 1015.2
20260504025530 79 45 0.0 4.0 0.00 0.00 0.00 49 1015.3
20260504025429 79 45 0.0 4.0 0.00 0.00 0.00 50 1015.4
20260504025330 79 90 2.0 4.0 0.00 0.00 0.00 50 1015.4
20260504025230 79 45 2.0 4.0 0.00 0.00 0.00 50 1015.4
20260504025130 79 45 0.0 4.0 0.00 0.00 0.00 50 1015.3
20260504025029 79 90 0.0 4.0 0.00 0.00 0.00 50 1015.3
20260504024930 78 45 0.0 4.0 0.00 0.00 0.00 50 1015.4
20260504024830 78 0 0.0 4.0 0.00 0.00 0.00 50 1015.4
20260504024730 78 90 0.0 4.0 0.00 0.00 0.00 50 1015.3
20260504024629 78 0 0.0 4.0 0.00 0.00 0.00 50 1015.4
20260504024530 78 0 1.0 4.0 0.00 0.00 0.00 51 1015.4
20260504024430 78 45 0.0 4.0 0.00 0.00 0.00 51 1015.4
20260504024330 78 45 0.0 4.0 0.00 0.00 0.00 50 1015.4
20260504024229 78 90 0.0 4.0 0.00 0.00 0.00 50 1015.5
20260504024129 78 45 0.0 4.0 0.00 0.00 0.00 50 1015.5
20260504024030 78 90 0.0 4.0 0.00 0.00 0.00 50 1015.4
20260504023929 78 0 4.0 0.0 0.00 0.00 0.00 50 1015.5
20260504023829 0 155 14.0 0.0 0.00 0.00 0.00
20260504023729 77 45 0.0 4.0 0.00 0.00 0.00 50 1015.5
20260504023630 77 45 0.0 4.0 0.00 0.00 0.00 50 1015.3
20260504023530 77 45 1.0 4.0 0.00 0.00 0.00 49 1015.3
20260504023429 77 45 0.0 4.0 0.00 0.00 0.00 49 1015.3
20260504023329 78 45 0.0 4.0 0.00 0.00 0.00 49 1015.5
20260504023230 78 45 1.0 4.0 0.00 0.00 0.00 48 1015.5
20260504023130 78 0 0.0 4.0 0.00 0.00 0.00 48 1015.4
20260504023029 78 45 0.0 3.0 0.00 0.00 0.00 48 1015.4
20260504022929 78 45 0.0 3.0 0.00 0.00 0.00 48 1015.4
20260504022829 78 45 0.0 3.0 0.00 0.00 0.00 49 1015.4
20260504022730 78 90 0.0 3.0 0.00 0.00 0.00 49 1015.4
20260504022630 78 45 0.0 3.0 0.00 0.00 0.00 50 1015.3
20260504022529 78 90 0.0 3.0 0.00 0.00 0.00 49 1015.2
20260504022429 78 90 0.0 3.0 0.00 0.00 0.00 49 1015.3
20260504022330 78 45 0.0 3.0 0.00 0.00 0.00 48 1015.3
20260504022229 78 45 0.0 3.0 0.00 0.00 0.00 49 1015.2
20260504022129 78 45 0.0 3.0 0.00 0.00 0.00 50 1015.4
20260504022029 77 45 0.0 3.0 0.00 0.00 0.00 50 1015.4
20260504021930 77 90 0.0 3.0 0.00 0.00 0.00 49 1015.4
20260504021830 77 0 0.0 3.0 0.00 0.00 0.00 50 1015.3
20260504021729 76 45 0.0 3.0 0.00 0.00 0.00 50 1015.3
20260504021629 76 45 1.0 3.0 0.00 0.00 0.00 49 1015.2
20260504021530 76 45 0.0 3.0 0.00 0.00 0.00 48 1015.3
20260504021430 77 0 0.0 3.0 0.00 0.00 0.00 48 1015.3
20260504021329 77 45 0.0 0.0 0.00 0.00 0.00 48 1015.5
20260504021229 77 0 0.0 0.0 0.00 0.00 0.00 47 1015.4
20260504021129 77 90 0.0 2.0 0.00 0.00 0.00 48 1015.4
20260504021030 78 45 0.0 3.0 0.00 0.00 0.00 47 1015.4
20260504020929 78 45 0.0 3.0 0.00 0.00 0.00 48 1015.4
20260504020829 78 45 0.0 3.0 0.00 0.00 0.00 48 1015.4
20260504020729 78 90 0.0 3.0 0.00 0.00 0.00 49 1015.4
20260504020630 77 45 0.0 3.0 0.00 0.00 0.00 49 1015.3
20260504020529 77 90 0.0 3.0 0.00 0.00 0.00 48 1015.4
20260504020429 77 90 0.0 3.0 0.00 0.00 0.00 49 1015.2
20260504020329 77 45 0.0 3.0 0.00 0.00 0.00 49 1015.2
20260504020230 77 45 0.0 3.0 0.00 0.00 0.00 49 1015.4
20260504020129 77 90 0.0 3.0 0.00 0.00 0.00 49 1015.5
20260504020029 77 45 0.0 3.0 0.00 0.00 0.00 49 1015.5
20260504015929 77 45 0.0 3.0 0.00 0.00 0.00 48 1015.4
20260504015830 78 0 1.0 3.0 0.00 0.00 0.00 47 1015.4
20260504015729 78 0 0.0 3.0 0.00 0.00 0.00 48 1015.4
20260504015629 77 0 0.0 3.0 0.00 0.00 0.00 49 1015.4
20260504015529 77 45 0.0 3.0 0.00 0.00 0.00 49 1015.2
20260504015429 77 45 0.0 3.0 0.00 0.00 0.00 49 1015.4
20260504015329 77 90 0.0 3.0 0.00 0.00 0.00 49 1015.5
20260504015229 77 90 0.0 3.0 0.00 0.00 0.00 50 1015.3
20260504015129 76 45 0.0 3.0 0.00 0.00 0.00 50 1015.3
20260504015029 76 45 0.0 3.0 0.00 0.00 0.00 48 1015.2
20260504014930 76 45 0.0 3.0 0.00 0.00 0.00 49 1015.3
20260504014829 76 90 0.0 3.0 0.00 0.00 0.00 50 1015.2
20260504014729 76 45 0.0 3.0 0.00 0.00 0.00 50 1015.3
20260504014629 76 45 0.0 0.0 0.00 0.00 0.00 50 1015.3
20260504014530 76 90 0.0 1.0 0.00 0.00 0.00 50 1015.4
20260504014429 75 45 0.0 3.0 0.00 0.00 0.00 51 1015.3
20260504014329 75 180 0.0 3.0 0.00 0.00 0.00 52 1015.3
20260504014229 75 180 0.0 3.0 0.00 0.00 0.00 51 1015.4
20260504014129 75 90 0.0 4.0 0.00 0.00 0.00 50 1015.3
20260504014030 75 90 0.0 4.0 0.00 0.00 0.00 51 1015.3
20260504013929 75 0 0.0 4.0 0.00 0.00 0.00 51 1015.4
20260504013829 74 45 0.0 4.0 0.00 0.00 0.00 52 1015.3
20260504013729 74 45 0.0 4.0 0.00 0.00 0.00 52 1015.4
20260504013629 74 180 0.0 4.0 0.00 0.00 0.00 52 1015.3
20260504013529 74 180 0.0 4.0 0.00 0.00 0.00 52 1015.3
20260504013429 74 180 0.0 4.0 0.00 0.00 0.00 52 1015.3
20260504013329 73 180 1.0 4.0 0.00 0.00 0.00 52 1015.4
20260504013229 73 180 0.0 4.0 0.00 0.00 0.00 52 1015.3
20260504013129 73 90 0.0 3.0 0.00 0.00 0.00 53 1015.3
20260504013029 73 0 0.0 3.0 0.00 0.00 0.00 53 1015.4
20260504012929 73 0 3.0 0.0 0.00 0.00 0.00 53 1015.4
20260504012829 73 90 0.0 4.0 0.00 0.00 0.00 54 1015.3
20260504012729 73 180 0.0 4.0 0.00 0.00 0.00 54 1015.3
20260504012629 73 180 0.0 4.0 0.00 0.00 0.00 55 1015.3
20260504012529 73 180 0.0 4.0 0.00 0.00 0.00 58 1015.5
20260504012429 72 90 0.0 4.0 0.00 0.00 0.00 58 1015.4
20260504012329 72 0 0.0 4.0 0.00 0.00 0.00 57 1015.3
20260504012229 72 0 0.0 4.0 0.00 0.00 0.00 57 1015.2
20260504012129 73 0 0.0 4.0 0.00 0.00 0.00 56 1015.3
20260504012029 73 315 0.0 4.0 0.00 0.00 0.00 55 1015.2
20260504011929 0 151 15.0 0.0 0.00 0.00 0.00
20260504011829 73 0 0.0 4.0 0.00 0.00 0.00 56 1015.2
20260504011729 73 45 0.0 4.0 0.00 0.00 0.00 56 1015.4
20260504011629 73 45 0.0 4.0 0.00 0.00 0.00 56 1015.4
20260504011529 73 45 0.0 4.0 0.00 0.00 0.00 56 1015.4
20260504011429 73 90 0.0 4.0 0.00 0.00 0.00 56 1015.4
20260504011329 73 45 0.0 4.0 0.00 0.00 0.00 56 1015.5
20260504011229 73 45 0.0 4.0 0.00 0.00 0.00 56 1015.4
20260504011129 73 45 0.0 3.0 0.00 0.00 0.00 56 1015.4
20260504011029 72 45 0.0 3.0 0.00 0.00 0.00 57 1015.1
20260504010929 72 45 0.0 3.0 0.00 0.00 0.00 57 1015.2
20260504010829 72 45 0.0 3.0 0.00 0.00 0.00 57 1015.2
20260504010729 72 90 0.0 3.0 0.00 0.00 0.00 57 1015.2
20260504010629 72 0 1.0 3.0 0.00 0.00 0.00 57 1015.2
20260504010529 73 0 0.0 3.0 0.00 0.00 0.00 57 1015.2
20260504010429 73 45 0.0 3.0 0.00 0.00 0.00 57 1015.3
20260504010329 73 0 0.0 3.0 0.00 0.00 0.00 57 1015.2
20260504010229 74 45 0.0 3.0 0.00 0.00 0.00 58 1015.3
20260504010129 74 90 0.0 3.0 0.00 0.00 0.00 57 1015.3
20260504010029 74 0 0.0 3.0 0.00 0.00 0.00 57 1015.2
20260504005929 73 45 0.0 3.0 0.00 0.00 0.00 57 1015.2
20260504005829 73 180 0.0 3.0 0.00 0.00 0.00 56 1015.2
20260504005729 73 45 0.0 3.0 0.00 0.00 0.00 56 1015.3
20260504005629 73 45 0.0 2.0 0.00 0.00 0.00 56 1015.3
20260504005529 73 90 0.0 2.0 0.00 0.00 0.00 56 1015.4
20260504005429 73 45 0.0 2.0 0.00 0.00 0.00 55 1015.1
20260504005329 73 90 0.0 2.0 0.00 0.00 0.00 54 1015.1
20260504005229 73 90 0.0 2.0 0.00 0.00 0.00 54 1015.1
20260504005129 72 0 0.0 2.0 0.00 0.00 0.00 55 1015.2
20260504005029 72 0 0.0 2.0 0.00 0.00 0.00 55 1015.3
20260504004929 72 90 0.0 2.0 0.00 0.00 0.00 55 1015.3
20260504004829 72 0 0.0 3.0 0.00 0.00 0.00 55 1015.3
20260504004729 72 0 0.0 3.0 0.00 0.00 0.00 56 1015.2
20260504004629 71 90 0.0 3.0 0.00 0.00 0.00 56 1015.2
20260504004529 71 90 0.0 3.0 0.00 0.00 0.00 55 1015.0
20260504004429 71 45 0.0 3.0 0.00 0.00 0.00 55 1015.1
20260504004329 71 45 0.0 3.0 0.00 0.00 0.00 54 1015.1
20260504004229 71 0 0.0 3.0 0.00 0.00 0.00 54 1015.1
20260504004129 72 45 0.0 3.0 0.00 0.00 0.00 54 1015.2
20260504004029 72 45 0.0 3.0 0.00 0.00 0.00 54 1015.0
20260504003929 72 45 0.0 3.0 0.00 0.00 0.00 54 1015.1
20260504003829 72 45 0.0 0.0 0.00 0.00 0.00 54 1015.2
20260504003729 72 45 0.0 0.0 0.00 0.00 0.00 54 1015.0
20260504003629 72 0 0.0 0.0 0.00 0.00 0.00 55 1015.1
20260504003529 73 45 0.0 0.0 0.00 0.00 0.00 55 1015.1
20260504003429 73 90 0.0 0.0 0.00 0.00 0.00 56 1015.0
20260504003329 72 90 0.0 0.0 0.00 0.00 0.00 56 1015.1
20260504003229 72 45 0.0 2.0 0.00 0.00 0.00 56 1015.1
20260504003129 72 180 0.0 2.0 0.00 0.00 0.00 57 1014.9
20260504003029 72 180 0.0 2.0 0.00 0.00 0.00 58 1014.9
20260504002929 71 45 0.0 2.0 0.00 0.00 0.00 58 1014.9
20260504002829 71 0 2.0 0.0 0.00 0.00 0.00 57 1015.0
20260504002729 71 0 0.0 2.0 0.00 0.00 0.00 57 1015.0
20260504002629 71 90 0.0 2.0 0.00 0.00 0.00 57 1014.9
20260504002529 71 45 0.0 2.0 0.00 0.00 0.00 57 1015.1
20260504002429 71 45 0.0 2.0 0.00 0.00 0.00 57 1014.9
20260504002329 71 90 0.0 2.0 0.00 0.00 0.00 58 1014.8
20260504002229 71 45 0.0 0.0 0.00 0.00 0.00 58 1014.8
20260504002129 71 45 0.0 0.0 0.00 0.00 0.00 58 1015.1
20260504002029 71 45 0.0 0.0 0.00 0.00 0.00 59 1014.9
20260504001929 71 45 0.0 0.0 0.00 0.00 0.00 59 1015.1
20260504001829 71 45 0.0 0.0 0.00 0.00 0.00 58 1015.0
20260504001729 71 90 0.0 0.0 0.00 0.00 0.00 58 1015.0
20260504001629 71 0 0.0 0.0 0.00 0.00 0.00 58 1014.8
20260504001529 71 0 0.0 0.0 0.00 0.00 0.00 58 1014.8
20260504001429 71 45 0.0 0.0 0.00 0.00 0.00 58 1014.7
20260504001329 71 0 0.0 0.0 0.00 0.00 0.00 58 1014.9
20260504001229 71 45 0.0 0.0 0.00 0.00 0.00 57 1014.7
20260504001129 71 45 0.0 0.0 0.00 0.00 0.00 58 1014.8
20260504001029 72 0 0.0 0.0 0.00 0.00 0.00 58 1014.6
20260504000929 72 0 0.0 0.0 0.00 0.00 0.00 58 1014.6
20260504000829 72 0 0.0 0.0 0.00 0.00 0.00 58 1014.8
20260504000729 72 45 0.0 0.0 0.00 0.00 0.00 58 1014.8
20260504000629 72 90 0.0 0.0 0.00 0.00 0.00 59 1014.8
20260504000529 72 90 0.0 0.0 0.00 0.00 0.00 59 1014.8
20260504000431 71 90 0.0 0.0 0.00 0.00 0.00 60 1014.8
20260504000329 71 45 0.0 0.0 0.00 0.00 0.00 60 1014.9
20260504000229 71 45 0.0 0.0 0.00 0.00 0.00 60 1014.7
20260504000129 71 90 0.0 0.0 0.00 0.00 0.00 61 1014.7
20260504000029 71 90 0.0 0.0 0.00 0.00 0.00 61 1014.7
20260503235928 71 45 0.0 0.0 0.00 0.00 0.00 61 1014.7
20260503235829 71 90 0.0 0.0 0.00 0.00 0.00 61 1014.6
20260503235729 71 45 0.0 0.0 0.00 0.00 0.00 61 1014.9
20260503235629 71 180 0.0 0.0 0.00 0.00 0.00 60 1014.8
20260503235529 71 90 0.0 0.0 0.00 0.00 0.00 60 1014.8
20260503235429 71 180 0.0 0.0 0.00 0.00 0.00 60 1014.8
20260503235329 71 90 0.0 0.0 0.00 0.00 0.00 60 1014.8
20260503235229 71 0 0.0 0.0 0.00 0.00 0.00 60 1014.8
20260503235129 71 90 0.0 0.0 0.00 0.00 0.00 60 1014.8
20260503235029 71 45 0.0 0.0 0.00 0.00 0.00 61 1014.7
20260503234929 70 180 0.0 0.0 0.00 0.00 0.00 62 1014.7
20260503234829 70 90 0.0 0.0 0.00 0.00 0.00 62 1014.8
20260503234729 70 45 0.0 0.0 0.00 0.00 0.00 62 1014.6
20260503234629 70 180 0.0 0.0 0.00 0.00 0.00 62 1014.6
20260503234529 69 90 0.0 0.0 0.00 0.00 0.00 62 1014.6
20260503234429 69 180 0.0 0.0 0.00 0.00 0.00 62 1014.6
20260503234329 69 0 0.0 0.0 0.00 0.00 0.00 61 1014.6
20260503234229 69 0 0.0 0.0 0.00 0.00 0.00 61 1014.7
20260503234129 69 0 0.0 0.0 0.00 0.00 0.00 62 1014.6
20260503234028 69 0 0.0 0.0 0.00 0.00 0.00 62 1014.7
20260503233929 69 0 0.0 0.0 0.00 0.00 0.00 63 1014.7
20260503233829 69 0 0.0 0.0 0.00 0.00 0.00 63 1014.6
20260503233729 68 0 0.0 0.0 0.00 0.00 0.00 64 1014.5
20260503233528 68 180 0.0 0.0 0.00 0.00 0.00 65 1014.6
20260503233429 68 180 0.0 0.0 0.00 0.00 0.00 65 1014.4
20260503233329 68 180 0.0 0.0 0.00 0.00 0.00 66 1014.4
20260503233229 67 180 0.0 0.0 0.00 0.00 0.00 66 1014.4
20260503233129 67 0 0.0 0.0 0.00 0.00 0.00 67 1014.4
20260503233029 67 180 0.0 0.0 0.00 0.00 0.00 68 1014.5
20260503232928 67 180 0.0 0.0 0.00 0.00 0.00 68 1014.5
20260503232829 67 180 0.0 0.0 0.00 0.00 0.00 68 1014.5
20260503232729 66 180 0.0 0.0 0.00 0.00 0.00 69 1014.4
20260503232629 66 180 0.0 0.0 0.00 0.00 0.00 69 1014.5
20260503232529 66 180 0.0 0.0 0.00 0.00 0.00 70 1014.5
20260503232428 66 180 0.0 0.0 0.00 0.00 0.00 70 1014.5
20260503232328 66 180 0.0 0.0 0.00 0.00 0.00 71 1014.5
20260503232229 66 180 0.0 0.0 0.00 0.00 0.00 71 1014.5
20260503232129 66 180 0.0 0.0 0.00 0.00 0.00 72 1014.5
20260503232029 65 180 0.0 0.0 0.00 0.00 0.00 72 1014.5
20260503231929 65 180 0.0 0.0 0.00 0.00 0.00 72 1014.5
20260503231828 65 180 0.0 0.0 0.00 0.00 0.00 73 1014.6
20260503231728 65 0 0.0 0.0 0.00 0.00 0.00 73 1014.6
20260503231629 65 0 0.0 0.0 0.00 0.00 0.00 73 1014.6
20260503231529 65 0 0.0 0.0 0.00 0.00 0.00 73 1014.5
20260503231429 65 0 0.0 0.0 0.00 0.00 0.00 74 1014.5
20260503231329 64 0 0.0 0.0 0.00 0.00 0.00 74 1014.4
20260503231228 64 0 0.0 0.0 0.00 0.00 0.00 74 1014.5
20260503231128 64 0 0.0 0.0 0.00 0.00 0.00 75 1014.5
20260503231029 64 0 0.0 0.0 0.00 0.00 0.00 75 1014.6
20260503230929 64 0 0.0 0.0 0.00 0.00 0.00 75 1014.5
20260503230829 64 0 0.0 0.0 0.00 0.00 0.00 76 1014.5
20260503230729 64 0 0.0 0.0 0.00 0.00 0.00 76 1014.5
20260503230628 64 0 0.0 0.0 0.00 0.00 0.00 76 1014.5
20260503230528 64 0 0.0 0.0 0.00 0.00 0.00 77 1014.4
20260503230429 64 0 0.0 0.0 0.00 0.00 0.00 77 1014.4
20260503230329 63 0 0.0 0.0 0.00 0.00 0.00 78 1014.4
20260503230229 63 0 0.0 0.0 0.00 0.00 0.00 78 1014.4
20260503230128 63 0 0.0 0.0 0.00 0.00 0.00 79 1014.3
20260503230028 63 0 0.0 0.0 0.00 0.00 0.00 79 1014.4
20260503225928 63 0 0.0 0.0 0.00 0.00 0.00 80 1014.3
20260503225828 63 0 0.0 0.0 0.00 0.00 0.00 80 1014.4
20260503225729 62 0 0.0 0.0 0.00 0.00 0.00 81 1014.4
20260503225629 62 0 0.0 0.0 0.00 0.00 0.00 81 1014.3
20260503225528 62 0 0.0 0.0 0.00 0.00 0.00 82 1014.5
20260503225428 62 0 0.0 0.0 0.00 0.00 0.00 82 1014.3
20260503225328 62 0 0.0 0.0 0.00 0.00 0.00 83 1014.5
20260503225228 62 0 0.0 0.0 0.00 0.00 0.00 83 1014.3
20260503225129 61 225 0.0 0.0 0.00 0.00 0.00 84 1014.3
20260503225029 61 225 0.0 0.0 0.00 0.00 0.00 84 1014.5
20260503224928 61 225 0.0 0.0 0.00 0.00 0.00 84 1014.3
20260503224828 61 225 0.0 0.0 0.00 0.00 0.00 85 1014.3
20260503224728 61 225 0.0 0.0 0.00 0.00 0.00 85 1014.4
20260503224628 61 225 0.0 0.0 0.00 0.00 0.00 85 1014.4
20260503224528 61 225 0.0 0.0 0.00 0.00 0.00 86 1014.3
20260503224429 60 225 0.0 0.0 0.00 0.00 0.00 86 1014.4
20260503224329 60 225 0.0 0.0 0.00 0.00 0.00 87 1014.3
20260503224228 60 225 0.0 0.0 0.00 0.00 0.00 87 1014.3
20260503224128 60 225 0.0 0.0 0.00 0.00 0.00 87 1014.2
20260503224028 60 225 0.0 0.0 0.00 0.00 0.00 88 1014.3
20260503223928 60 225 0.0 0.0 0.00 0.00 0.00 88 1014.2
20260503223828 60 225 0.0 0.0 0.00 0.00 0.00 88 1014.2
20260503223728 59 225 0.0 0.0 0.00 0.00 0.00 88 1014.4
20260503223629 59 225 0.0 0.0 0.00 0.00 0.00 88 1014.3
20260503223528 59 225 0.0 0.0 0.00 0.00 0.00 88 1014.3
20260503223428 59 225 0.0 0.0 0.00 0.00 0.00 88 1014.2
20260503223328 59 225 0.0 0.0 0.00 0.00 0.00 88 1014.1
20260503223228 58 225 0.0 0.0 0.00 0.00 0.00 88 1014.2
20260503223128 58 225 0.0 0.0 0.00 0.00 0.00 88 1014.2
20260503223028 58 225 0.0 0.0 0.00 0.00 0.00 88 1014.1
20260503222928 58 225 0.0 0.0 0.00 0.00 0.00 88 1014.0
20260503222828 58 225 0.0 0.0 0.00 0.00 0.00 89 1014.1
20260503222728 58 225 0.0 0.0 0.00 0.00 0.00 89 1013.9
20260503222628 58 225 0.0 0.0 0.00 0.00 0.00 89 1014.0
20260503222528 58 225 0.0 0.0 0.00 0.00 0.00 89 1013.9
20260503222428 57 225 0.0 0.0 0.00 0.00 0.00 89 1014.0
20260503222328 57 225 0.0 0.0 0.00 0.00 0.00 89 1013.8
20260503222228 57 225 0.0 0.0 0.00 0.00 0.00 89 1014.0
20260503222128 57 225 0.0 0.0 0.00 0.00 0.00 89 1013.9
20260503222028 57 225 0.0 0.0 0.00 0.00 0.00 89 1013.9
20260503221928 57 225 0.0 0.0 0.00 0.00 0.00 89 1013.9
20260503221828 57 225 0.0 0.0 0.00 0.00 0.00 89 1013.9
20260503221728 57 225 0.0 0.0 0.00 0.00 0.00 90 1013.8
20260503221628 57 225 0.0 0.0 0.00 0.00 0.00 90 1013.9
20260503221528 57 225 0.0 0.0 0.00 0.00 0.00 89 1013.9
20260503221428 57 225 0.0 0.0 0.00 0.00 0.00 90 1014.0
20260503221328 57 225 0.0 0.0 0.00 0.00 0.00 90 1013.8
20260503221228 56 225 0.0 0.0 0.00 0.00 0.00 90 1013.8
20260503221128 56 225 0.0 0.0 0.00 0.00 0.00 90 1014.0
20260503221028 56 225 0.0 0.0 0.00 0.00 0.00 90 1013.9
20260503220928 56 225 0.0 0.0 0.00 0.00 0.00 90 1013.8
20260503220828 56 225 0.0 0.0 0.00 0.00 0.00 90 1013.9
20260503220728 56 225 0.0 0.0 0.00 0.00 0.00 90 1013.7
20260503220628 56 225 0.0 0.0 0.00 0.00 0.00 90 1013.8
20260503220528 56 225 0.0 0.0 0.00 0.00 0.00 90 1013.8
20260503220428 55 225 0.0 0.0 0.00 0.00 0.00 90 1013.9
20260503220228 55 225 0.0 0.0 0.00 0.00 0.00 90 1013.9
20260503220128 55 225 0.0 0.0 0.00 0.00 0.00 90 1013.8
20260503220028 55 225 0.0 0.0 0.00 0.00 0.00 90 1013.8
20260503215928 55 225 0.0 0.0 0.00 0.00 0.00 90 1014.0
20260503215828 55 225 0.0 0.0 0.00 0.00 0.00 90 1013.7
20260503215728 55 225 0.0 0.0 0.00 0.00 0.00 90 1014.0
20260503215628 55 225 0.0 0.0 0.00 0.00 0.00 90 1013.8
20260503215528 55 225 0.0 0.0 0.00 0.00 0.00 90 1013.7
20260503215428 54 225 0.0 0.0 0.00 0.00 0.00 90 1013.8
20260503215328 54 225 0.0 0.0 0.00 0.00 0.00 90 1013.8
20260503215228 54 225 0.0 0.0 0.00 0.00 0.00 89 1013.8
20260503215128 54 225 0.0 0.0 0.00 0.00 0.00 89 1013.8
20260503215028 54 225 0.0 0.0 0.00 0.00 0.00 89 1013.7
20260503214928 54 225 0.0 0.0 0.00 0.00 0.00 89 1013.8
20260503214828 54 225 0.0 0.0 0.00 0.00 0.00 89 1013.7
20260503214728 54 225 0.0 0.0 0.00 0.00 0.00 89 1013.7
20260503214629 54 225 0.0 0.0 0.00 0.00 0.00 89 1013.7
20260503214528 54 225 0.0 0.0 0.00 0.00 0.00 89 1013.8
20260503214428 54 225 0.0 0.0 0.00 0.00 0.00 89 1013.8
20260503214328 54 225 0.0 0.0 0.00 0.00 0.00 89 1013.6
20260503214228 54 225 0.0 0.0 0.00 0.00 0.00 89 1013.6
20260503214129 54 225 0.0 0.0 0.00 0.00 0.00 89 1013.6
20260503214029 54 225 0.0 0.0 0.00 0.00 0.00 89 1013.6
20260503213929 54 225 0.0 0.0 0.00 0.00 0.00 89 1013.6
20260503213828 53 225 0.0 0.0 0.00 0.00 0.00 89 1013.6
20260503213728 54 225 0.0 0.0 0.00 0.00 0.00 88 1013.5
20260503213628 54 225 0.0 0.0 0.00 0.00 0.00 88 1013.6
20260503213528 54 225 0.0 0.0 0.00 0.00 0.00 88 1013.4
20260503213428 54 225 0.0 0.0 0.00 0.00 0.00 88 1013.4
20260503213328 54 225 0.0 0.0 0.00 0.00 0.00 88 1013.6
20260503213228 54 225 0.0 0.0 0.00 0.00 0.00 88 1013.5
20260503213128 54 225 0.0 0.0 0.00 0.00 0.00 88 1013.3
20260503213028 54 225 0.0 0.0 0.00 0.00 0.00 88 1013.4
20260503212928 54 225 0.0 0.0 0.00 0.00 0.00 88 1013.4
20260503212829 54 225 0.0 0.0 0.00 0.00 0.00 88 1013.5
20260503212729 54 225 0.0 0.0 0.00 0.00 0.00 88 1013.5
20260503212628 54 225 0.0 0.0 0.00 0.00 0.00 88 1013.4
20260503212528 54 225 0.0 0.0 0.00 0.00 0.00 88 1013.4
20260503212428 53 225 0.0 0.0 0.00 0.00 0.00 88 1013.4
20260503212328 53 225 0.0 0.0 0.00 0.00 0.00 88 1013.4
20260503212228 53 225 0.0 0.0 0.00 0.00 0.00 88 1013.5
20260503212128 53 225 0.0 0.0 0.00 0.00 0.00 88 1013.4
20260503212028 54 225 0.0 0.0 0.00 0.00 0.00 88 1013.6
20260503211928 54 225 0.0 0.0 0.00 0.00 0.00 88 1013.3
20260503211828 0 135 18.0 0.0 0.00 0.00 0.00
20260503211728 54 225 0.0 0.0 0.00 0.00 0.00 88 1013.3
20260503211628 54 225 0.0 0.0 0.00 0.00 0.00 88 1013.4
20260503211528 54 225 0.0 0.0 0.00 0.00 0.00 88 1013.3
20260503211428 54 225 0.0 0.0 0.00 0.00 0.00 88 1013.2
20260503211328 54 225 0.0 0.0 0.00 0.00 0.00 88 1013.2
20260503211228 54 225 0.0 0.0 0.00 0.00 0.00 88 1013.2
20260503211128 54 225 0.0 0.0 0.00 0.00 0.00 88 1013.4
20260503211028 54 225 0.0 0.0 0.00 0.00 0.00 88 1013.3
20260503210928 54 225 0.0 0.0 0.00 0.00 0.00 88 1013.2
20260503210828 54 225 0.0 0.0 0.00 0.00 0.00 88 1013.3
20260503210728 54 225 0.0 0.0 0.00 0.00 0.00 88 1013.3
20260503210628 54 225 0.0 0.0 0.00 0.00 0.00 88 1013.3
20260503210528 54 225 0.0 0.0 0.00 0.00 0.00 88 1013.4
20260503210428 54 225 0.0 0.0 0.00 0.00 0.00 88 1013.2
20260503210328 54 225 0.0 0.0 0.00 0.00 0.00 88 1013.2
20260503210228 54 225 0.0 0.0 0.00 0.00 0.00 88 1013.3
20260503210128 54 225 0.0 0.0 0.00 0.00 0.00 87 1013.3
20260503210028 54 225 0.0 0.0 0.00 0.00 0.00 88 1013.2
20260503205928 54 225 0.0 0.0 0.00 0.00 0.00 88 1013.3
20260503205828 54 225 0.0 0.0 0.00 0.00 0.00 87 1013.1
20260503205728 54 225 0.0 0.0 0.00 0.00 0.00 87 1013.1
20260503205628 54 225 0.0 0.0 0.00 0.00 0.00 88 1013.2
20260503205528 54 225 0.0 0.0 0.00 0.00 0.00 88 1013.1
20260503205427 54 225 0.0 0.0 0.00 0.00 0.00 88 1013.1
20260503205328 54 225 0.0 0.0 0.00 0.00 0.00 88 1013.1
20260503205228 54 225 0.0 0.0 0.00 0.00 0.00 88 1013.0
20260503205128 54 225 0.0 0.0 0.00 0.00 0.00 88 1013.2
20260503204928 54 225 0.0 0.0 0.00 0.00 0.00 88 1013.0
20260503204828 55 225 0.0 0.0 0.00 0.00 0.00 88 1013.1
20260503204728 55 225 0.0 0.0 0.00 0.00 0.00 88 1013.1
20260503204628 55 225 0.0 0.0 0.00 0.00 0.00 88 1013.0
20260503204528 55 225 0.0 0.0 0.00 0.00 0.00 88 1013.2
20260503204428 55 225 0.0 0.0 0.00 0.00 0.00 88 1013.1
20260503204328 54 225 0.0 0.0 0.00 0.00 0.00 88 1013.2
20260503204228 54 225 0.0 0.0 0.00 0.00 0.00 87 1013.1
20260503204128 54 225 0.0 0.0 0.00 0.00 0.00 87 1013.1
20260503204027 54 225 0.0 0.0 0.00 0.00 0.00 87 1013.3
20260503203928 54 225 0.0 0.0 0.00 0.00 0.00 87 1012.9
20260503203828 54 225 0.0 0.0 0.00 0.00 0.00 87 1013.0
20260503203728 54 225 0.0 0.0 0.00 0.00 0.00 87 1012.9
20260503203628 54 225 0.0 0.0 0.00 0.00 0.00 87 1013.0
20260503203528 54 225 0.0 0.0 0.00 0.00 0.00 86 1013.1
20260503203428 54 225 0.0 0.0 0.00 0.00 0.00 86 1013.1
20260503203328 54 225 0.0 0.0 0.00 0.00 0.00 86 1013.0
20260503203228 54 225 0.0 0.0 0.00 0.00 0.00 86 1012.9
20260503203128 54 225 0.0 0.0 0.00 0.00 0.00 86 1012.9
20260503203028 54 225 0.0 0.0 0.00 0.00 0.00 86 1013.0
20260503202928 54 225 0.0 0.0 0.00 0.00 0.00 86 1013.0
20260503202828 54 225 0.0 0.0 0.00 0.00 0.00 87 1013.1
20260503202728 54 225 0.0 0.0 0.00 0.00 0.00 86 1013.1
20260503202628 54 225 0.0 0.0 0.00 0.00 0.00 86 1013.1
20260503202528 55 225 0.0 0.0 0.00 0.00 0.00 87 1013.0
20260503202428 55 225 0.0 0.0 0.00 0.00 0.00 87 1013.3
20260503202328 55 225 0.0 0.0 0.00 0.00 0.00 86 1013.2
20260503202228 55 225 0.0 0.0 0.00 0.00 0.00 86 1013.2
20260503202128 55 225 0.0 0.0 0.00 0.00 0.00 86 1013.1
20260503202028 55 225 0.0 0.0 0.00 0.00 0.00 86 1013.0
20260503201928 55 225 0.0 0.0 0.00 0.00 0.00 86 1012.9
20260503201828 55 225 0.0 0.0 0.00 0.00 0.00 86 1012.9
20260503201728 55 225 0.0 0.0 0.00 0.00 0.00 86 1013.0
20260503201628 55 225 0.0 0.0 0.00 0.00 0.00 86 1013.0
20260503201528 55 225 0.0 0.0 0.00 0.00 0.00 86 1012.9
20260503201428 55 225 0.0 0.0 0.00 0.00 0.00 86 1012.9
20260503201328 55 225 0.0 0.0 0.00 0.00 0.00 86 1013.1
20260503201228 55 225 0.0 0.0 0.00 0.00 0.00 86 1013.2
20260503201128 55 225 0.0 0.0 0.00 0.00 0.00 86 1013.0
20260503201028 55 225 0.0 0.0 0.00 0.00 0.00 86 1013.0
20260503200928 55 225 0.0 0.0 0.00 0.00 0.00 86 1012.9
20260503200828 55 225 0.0 0.0 0.00 0.00 0.00 86 1013.0
20260503200728 55 225 0.0 0.0 0.00 0.00 0.00 86 1012.9
20260503200628 55 225 0.0 0.0 0.00 0.00 0.00 86 1013.2
20260503200528 55 225 0.0 0.0 0.00 0.00 0.00 86 1013.0
20260503200427 55 225 0.0 0.0 0.00 0.00 0.00 86 1013.0
20260503200327 55 225 0.0 0.0 0.00 0.00 0.00 86 1013.0
20260503200227 55 225 0.0 0.0 0.00 0.00 0.00 86 1013.1
20260503200128 55 225 0.0 0.0 0.00 0.00 0.00 85 1013.2
20260503200028 55 225 0.0 0.0 0.00 0.00 0.00 85 1013.1
20260503195928 55 225 0.0 0.0 0.00 0.00 0.00 85 1013.1
20260503195828 55 225 0.0 0.0 0.00 0.00 0.00 85 1013.1
20260503195728 55 225 0.0 0.0 0.00 0.00 0.00 85 1013.2
20260503195628 55 225 0.0 0.0 0.00 0.00 0.00 85 1013.1
20260503195528 55 225 0.0 0.0 0.00 0.00 0.00 85 1013.1
20260503195428 55 225 0.0 0.0 0.00 0.00 0.00 85 1013.1
20260503195328 55 225 0.0 0.0 0.00 0.00 0.00 85 1013.0
20260503195228 55 225 0.0 0.0 0.00 0.00 0.00 85 1013.1
20260503195128 55 225 0.0 0.0 0.00 0.00 0.00 85 1013.3
20260503195027 55 225 0.0 0.0 0.00 0.00 0.00 85 1013.2
20260503194927 55 225 0.0 0.0 0.00 0.00 0.00 85 1013.1
20260503194827 56 225 0.0 0.0 0.00 0.00 0.00 85 1013.0
20260503194727 56 90 0.0 0.0 0.00 0.00 0.00 85 1013.0
20260503194628 56 90 0.0 0.0 0.00 0.00 0.00 85 1013.0
20260503194528 56 90 0.0 0.0 0.00 0.00 0.00 85 1013.1
20260503194428 56 90 0.0 0.0 0.00 0.00 0.00 85 1013.1
20260503194328 56 90 0.0 0.0 0.00 0.00 0.00 84 1013.0
20260503194228 56 90 0.0 0.0 0.00 0.00 0.00 84 1012.9
20260503194128 56 0 0.0 0.0 0.00 0.00 0.00 84 1012.9
20260503194027 56 0 0.0 0.0 0.00 0.00 0.00 84 1013.0
20260503193928 56 0 0.0 0.0 0.00 0.00 0.00 84 1013.1
20260503193827 56 0 0.0 0.0 0.00 0.00 0.00 84 1013.0
20260503193727 56 0 0.0 0.0 0.00 0.00 0.00 84 1013.0
20260503193627 56 0 0.0 0.0 0.00 0.00 0.00 83 1012.9
20260503193527 56 0 0.0 0.0 0.00 0.00 0.00 83 1012.9
20260503193427 56 0 0.0 0.0 0.00 0.00 0.00 83 1012.9
20260503193327 56 0 0.0 0.0 0.00 0.00 0.00 83 1013.0
20260503193227 56 0 0.0 0.0 0.00 0.00 0.00 83 1013.1
20260503193128 56 0 0.0 0.0 0.00 0.00 0.00 83 1013.0
20260503193028 56 0 0.0 0.0 0.00 0.00 0.00 83 1013.2
20260503192928 56 0 0.0 0.0 0.00 0.00 0.00 83 1013.1
20260503192828 56 0 0.0 0.0 0.00 0.00 0.00 83 1013.0
20260503192728 56 0 0.0 0.0 0.00 0.00 0.00 83 1013.0
20260503192627 56 0 0.0 0.0 0.00 0.00 0.00 83 1013.0
20260503192527 56 0 0.0 0.0 0.00 0.00 0.00 83 1013.0
20260503192427 56 0 0.0 0.0 0.00 0.00 0.00 82 1013.0
20260503192327 56 0 0.0 0.0 0.00 0.00 0.00 82 1013.0
20260503192227 56 0 0.0 0.0 0.00 0.00 0.00 82 1013.0
20260503192127 57 45 0.0 0.0 0.00 0.00 0.00 82 1013.2
20260503192027 57 45 0.0 0.0 0.00 0.00 0.00 82 1013.0
20260503191928 57 45 0.0 0.0 0.00 0.00 0.00 82 1013.0
20260503191828 57 45 0.0 0.0 0.00 0.00 0.00 82 1013.1
20260503191728 57 45 0.0 0.0 0.00 0.00 0.00 81 1013.2
20260503191628 57 45 0.0 0.0 0.00 0.00 0.00 81 1013.1
20260503191527 57 225 0.0 0.0 0.00 0.00 0.00 81 1012.9
20260503191427 57 225 0.0 0.0 0.00 0.00 0.00 81 1012.9
20260503191327 57 225 0.0 0.0 0.00 0.00 0.00 81 1012.9
20260503191227 57 225 0.0 0.0 0.00 0.00 0.00 81 1012.9
20260503191127 57 225 0.0 0.0 0.00 0.00 0.00 81 1013.0
20260503191027 57 225 0.0 0.0 0.00 0.00 0.00 81 1012.9
20260503190927 57 225 0.0 0.0 0.00 0.00 0.00 81 1013.0
20260503190827 57 225 0.0 0.0 0.00 0.00 0.00 80 1012.9
20260503190728 57 225 0.0 0.0 0.00 0.00 0.00 80 1012.9
20260503190628 57 225 0.0 0.0 0.00 0.00 0.00 80 1012.9
20260503190528 57 225 0.0 0.0 0.00 0.00 0.00 80 1012.9
20260503190427 57 225 0.0 0.0 0.00 0.00 0.00 80 1012.8
20260503190327 57 225 0.0 0.0 0.00 0.00 0.00 80 1013.0
20260503190227 58 225 0.0 0.0 0.00 0.00 0.00 80 1012.9
20260503190127 57 225 0.0 0.0 0.00 0.00 0.00 80 1012.9
20260503190027 57 225 0.0 0.0 0.00 0.00 0.00 80 1012.7
20260503185927 58 225 0.0 0.0 0.00 0.00 0.00 79 1012.7
20260503185827 58 0 0.0 0.0 0.00 0.00 0.00 79 1012.9
20260503185727 58 180 0.0 0.0 0.00 0.00 0.00 79 1012.8
20260503185627 58 45 0.0 0.0 0.00 0.00 0.00 79 1012.7
20260503185527 58 45 0.0 0.0 0.00 0.00 0.00 79 1012.8
20260503185427 58 225 0.0 0.0 0.00 0.00 0.00 78 1012.7
20260503185327 58 225 0.0 0.0 0.00 0.00 0.00 78 1012.6
20260503185227 58 225 0.0 0.0 0.00 0.00 0.00 78 1012.6
20260503185127 58 225 0.0 0.0 0.00 0.00 0.00 78 1012.5
20260503185027 58 225 0.0 0.0 0.00 0.00 0.00 78 1012.7
20260503184927 58 225 0.0 0.0 0.00 0.00 0.00 78 1012.6
20260503184827 58 225 0.0 0.0 0.00 0.00 0.00 77 1012.7
20260503184727 58 0 0.0 0.0 0.00 0.00 0.00 77 1012.5
20260503184627 58 0 0.0 0.0 0.00 0.00 0.00 77 1012.7
20260503184527 59 225 0.0 0.0 0.00 0.00 0.00 77 1012.7
20260503184427 59 225 0.0 0.0 0.00 0.00 0.00 77 1012.6
20260503184327 59 225 0.0 0.0 0.00 0.00 0.00 77 1012.5
20260503184227 59 225 0.0 0.0 0.00 0.00 0.00 77 1012.7
20260503184127 59 90 0.0 0.0 0.00 0.00 0.00 77 1012.6
20260503184027 59 315 0.0 0.0 0.00 0.00 0.00 77 1012.8
20260503183927 59 0 0.0 0.0 0.00 0.00 0.00 77 1012.8
20260503183827 59 315 0.0 3.0 0.00 0.00 0.00 77 1012.6
20260503183727 59 0 0.0 3.0 0.00 0.00 0.00 77 1012.8
20260503183627 59 45 0.0 3.0 0.00 0.00 0.00 77 1012.7
20260503183427 59 0 0.0 3.0 0.00 0.00 0.00 77 1012.5
20260503183327 59 315 0.0 3.0 0.00 0.00 0.00 77 1012.6
20260503183227 59 90 0.0 3.0 0.00 0.00 0.00 77 1012.6
20260503183127 58 0 0.0 3.0 0.00 0.00 0.00 76 1012.6
20260503183027 58 90 0.0 3.0 0.00 0.00 0.00 76 1012.7
20260503182928 58 0 0.0 3.0 0.00 0.00 0.00 76 1012.7
20260503182827 58 315 0.0 2.0 0.00 0.00 0.00 76 1012.6
20260503182727 58 0 0.0 0.0 0.00 0.00 0.00 76 1012.6
20260503182627 58 45 0.0 0.0 0.00 0.00 0.00 76 1012.6
20260503182527 58 90 0.0 0.0 0.00 0.00 0.00 75 1012.6
20260503182427 58 45 0.0 0.0 0.00 0.00 0.00 76 1012.4
20260503182328 58 0 0.0 0.0 0.00 0.00 0.00 76 1012.4
20260503182227 58 0 0.0 0.0 0.00 0.00 0.00 76 1012.5
20260503182127 58 0 0.0 0.0 0.00 0.00 0.00 76 1012.3
20260503182027 58 0 0.0 0.0 0.00 0.00 0.00 75 1012.4
20260503181927 58 315 0.0 0.0 0.00 0.00 0.00 75 1012.3
20260503181827 58 225 0.0 0.0 0.00 0.00 0.00 75 1012.4
20260503181727 58 225 0.0 0.0 0.00 0.00 0.00 75 1012.4
20260503181627 58 225 0.0 0.0 0.00 0.00 0.00 75 1012.4
20260503181528 58 225 0.0 0.0 0.00 0.00 0.00 75 1012.5
20260503181428 58 225 0.0 0.0 0.00 0.00 0.00 75 1012.5
20260503181328 58 225 0.0 0.0 0.00 0.00 0.00 75 1012.4
20260503181228 58 225 0.0 0.0 0.00 0.00 0.00 75 1012.3
20260503181128 58 225 0.0 0.0 0.00 0.00 0.00 75 1012.6
20260503181027 58 225 0.0 0.0 0.00 0.00 0.00 75 1012.6
20260503180927 58 225 0.0 0.0 0.00 0.00 0.00 75 1012.5
20260503180827 58 225 0.0 0.0 0.00 0.00 0.00 75 1012.4
20260503180727 58 225 0.0 0.0 0.00 0.00 0.00 75 1012.4
20260503180528 58 0 0.0 0.0 0.00 0.00 0.00 75 1012.4
20260503180427 58 0 0.0 0.0 0.00 0.00 0.00 75 1012.4
20260503180327 58 0 0.0 0.0 0.00 0.00 0.00 75 1012.4
20260503180228 58 0 0.0 0.0 0.00 0.00 0.00 75 1012.5
20260503180128 58 0 0.0 0.0 0.00 0.00 0.00 75 1012.5
20260503180027 58 0 0.0 0.0 0.00 0.00 0.00 75 1012.4
20260503175927 58 0 0.0 0.0 0.00 0.00 0.00 75 1012.4
20260503175827 58 0 0.0 0.0 0.00 0.00 0.00 75 1012.5
20260503175727 58 0 0.0 0.0 0.00 0.00 0.00 74 1012.4
20260503175627 58 0 0.0 0.0 0.00 0.00 0.00 74 1012.6
20260503175527 58 0 0.0 0.0 0.00 0.00 0.00 74 1012.5
20260503175427 58 0 0.0 0.0 0.00 0.00 0.00 74 1012.4
20260503175327 58 0 0.0 0.0 0.00 0.00 0.00 74 1012.5
20260503175227 58 0 0.0 0.0 0.00 0.00 0.00 74 1012.5
20260503175127 59 0 0.0 0.0 0.00 0.00 0.00 74 1012.4
20260503175027 59 0 0.0 0.0 0.00 0.00 0.00 74 1012.5
20260503174927 59 0 0.0 0.0 0.00 0.00 0.00 74 1012.5
20260503174827 59 0 0.0 0.0 0.00 0.00 0.00 74 1012.5
20260503174727 59 0 0.0 0.0 0.00 0.00 0.00 74 1012.6
20260503174627 59 0 0.0 0.0 0.00 0.00 0.00 74 1012.5
20260503174527 59 0 0.0 0.0 0.00 0.00 0.00 74 1012.6
20260503174427 59 0 0.0 0.0 0.00 0.00 0.00 74 1012.5
20260503174327 59 225 0.0 0.0 0.00 0.00 0.00 74 1012.6
20260503174227 59 225 0.0 0.0 0.00 0.00 0.00 74 1012.6
20260503174027 59 225 0.0 0.0 0.00 0.00 0.00 74 1012.4
20260503173927 59 225 0.0 0.0 0.00 0.00 0.00 73 1012.4
20260503173827 59 225 0.0 0.0 0.00 0.00 0.00 73 1012.5
20260503173727 59 225 0.0 0.0 0.00 0.00 0.00 73 1012.5
20260503173627 59 225 0.0 0.0 0.00 0.00 0.00 73 1012.6
20260503173527 59 225 0.0 0.0 0.00 0.00 0.00 73 1012.5
20260503173427 59 225 0.0 0.0 0.00 0.00 0.00 73 1012.4
20260503173327 59 225 0.0 0.0 0.00 0.00 0.00 73 1012.4
20260503173227 59 225 0.0 0.0 0.00 0.00 0.00 73 1012.5
20260503173127 59 225 0.0 0.0 0.00 0.00 0.00 72 1012.3
20260503173027 59 225 0.0 0.0 0.00 0.00 0.00 72 1012.4
20260503172927 59 225 0.0 0.0 0.00 0.00 0.00 72 1012.3
20260503172827 59 225 0.0 0.0 0.00 0.00 0.00 72 1012.4
20260503172727 59 225 0.0 0.0 0.00 0.00 0.00 71 1012.3
20260503172627 59 225 0.0 0.0 0.00 0.00 0.00 71 1012.2
20260503172527 59 225 0.0 0.0 0.00 0.00 0.00 71 1012.2
20260503172427 59 225 0.0 0.0 0.00 0.00 0.00 71 1012.3
20260503172327 59 225 0.0 0.0 0.00 0.00 0.00 70 1012.2
20260503172227 60 225 0.0 0.0 0.00 0.00 0.00 70 1012.2
20260503172127 60 225 0.0 0.0 0.00 0.00 0.00 70 1012.2
20260503172026 60 0 0.0 0.0 0.00 0.00 0.00 69 1012.1
20260503171927 60 225 0.0 0.0 0.00 0.00 0.00 69 1012.0
20260503171827 60 225 0.0 0.0 0.00 0.00 0.00 69 1012.3
20260503171727 60 225 0.0 0.0 0.00 0.00 0.00 69 1012.0
20260503171627 60 225 0.0 0.0 0.00 0.00 0.00 69 1012.0
20260503171527 60 225 0.0 0.0 0.00 0.00 0.00 68 1012.1
20260503171427 60 225 0.0 0.0 0.00 0.00 0.00 68 1012.2
20260503171327 60 225 0.0 0.0 0.00 0.00 0.00 68 1012.0
20260503171227 60 225 0.0 0.0 0.00 0.00 0.00 68 1012.0
20260503171127 60 225 0.0 0.0 0.00 0.00 0.00 67 1012.1
20260503171027 60 225 0.0 0.0 0.00 0.00 0.00 67 1012.0
20260503170927 60 225 0.0 0.0 0.00 0.00 0.00 67 1012.0
20260503170827 60 225 0.0 0.0 0.00 0.00 0.00 67 1012.2
20260503170727 61 0 0.0 0.0 0.00 0.00 0.00 67 1012.1
20260503170627 61 0 0.0 0.0 0.00 0.00 0.00 67 1012.2
20260503170527 61 0 0.0 0.0 0.00 0.00 0.00 67 1012.3
20260503170427 61 0 0.0 0.0 0.00 0.00 0.00 66 1012.2
20260503170327 61 225 0.0 0.0 0.00 0.00 0.00 66 1012.1
20260503170227 61 0 0.0 0.0 0.00 0.00 0.00 66 1012.2
20260503170127 61 0 0.0 0.0 0.00 0.00 0.00 66 1012.4
20260503160127 62 225 0.0 0.0 0.00 0.00 0.00 63 1012.2
20260503150926 61 225 0.0 0.0 0.00 0.00 0.00 66 1012.3
20260503150826 61 0 0.0 0.0 0.00 0.00 0.00 66 1012.4
20260503150726 61 0 0.0 0.0 0.00 0.00 0.00 66 1012.4
20260503150626 61 225 0.0 0.0 0.00 0.00 0.00 66 1012.4
20260503150526 61 225 0.0 0.0 0.00 0.00 0.00 66 1012.3
20260503150426 61 225 0.0 0.0 0.00 0.00 0.00 66 1012.4
20260503150326 61 225 0.0 0.0 0.00 0.00 0.00 66 1012.4
20260503150226 61 0 0.0 0.0 0.00 0.00 0.00 66 1012.5
20260503150126 61 225 0.0 0.0 0.00 0.00 0.00 67 1012.4
20260503140226 60 225 0.0 0.0 0.00 0.00 0.00 70 1012.2
20260503140126 60 225 0.0 0.0 0.00 0.00 0.00 70 1012.1
20260503131326 59 225 0.0 0.0 0.00 0.00 0.00 80 1011.7
20260503131226 59 0 0.0 0.0 0.00 0.00 0.00 79 1011.9
20260503131126 59 225 0.0 0.0 0.00 0.00 0.00 79 1011.7
20260503131026 59 225 0.0 0.0 0.00 0.00 0.00 79 1011.8
20260503130925 59 225 0.0 0.0 0.00 0.00 0.00 79 1011.7
20260503130825 59 0 0.0 0.0 0.00 0.00 0.00 79 1011.6
20260503130725 59 225 0.0 0.0 0.00 0.00 0.00 79 1011.8
20260503130626 59 225 0.0 0.0 0.00 0.00 0.00 79 1011.9
20260503130526 59 225 0.0 0.0 0.00 0.00 0.00 79 1011.9
20260503130426 59 225 0.0 0.0 0.00 0.00 0.00 79 1011.8
20260503130326 59 225 0.0 0.0 0.00 0.00 0.00 79 1011.7
20260503130226 59 225 0.0 0.0 0.00 0.00 0.00 79 1011.8
20260503130126 59 225 0.0 0.0 0.00 0.00 0.00 79 1011.9
20260503120125 60 0 0.0 0.0 0.00 0.01 0.00 76 1010.8
20260503110826 64 225 0.0 0.0 0.00 0.05 0.00 64 1010.4
20260503110725 64 225 0.0 0.0 0.00 0.05 0.00 64 1010.3
20260503110625 64 225 0.0 0.0 0.00 0.05 0.00 64 1010.3
20260503110525 64 225 0.0 0.0 0.00 0.05 0.00 64 1010.2
20260503110425 64 225 0.0 0.0 0.00 0.05 0.00 64 1010.3
20260503110325 64 0 0.0 0.0 0.00 0.05 0.00 64 1010.2
20260503110225 64 0 0.0 0.0 0.00 0.05 0.00 64 1010.3
20260503110125 65 225 0.0 0.0 0.00 0.06 0.00 64 1010.4